Temp
36 36 37 39 38 38 37 37 37 38 38 38 38 38 38 38 39 38 37 37 37 38 37 33 33 32 32 31 29 28 27 26 25 25 25 26 26 26 26 27 26 26 25 24
36 37 38 37 37 37 37 37 38 38 38 38 38 38 38 38 38 38 37 37 37 36 35 34 33 32 32 30 29 27 27 26 25 25 25 26 27 27 27 27 27 25 24 23
37 38 37 37 37 37 37 37 38 37 38 39 38 38 37 38 38 38 37 36 35 35 34 34 33 32 32 30 29 28 27 26 25 26 25 25 26 26 27 27 27 25 24 24
38 38 36 37 37 37 37 37 37 37 37 37 38 37 37 38 38 38 37 37 35 34 34 33 32 32 32 31 29 28 27 26 25 25 25 23 24 26 27 27 27 27 25 24
37 37 37 36 36 37 36 37 37 37 37 37 38 37 37 38 37 38 37 36 36 35 34 33 33 31 30 30 30 29 28 26 26 25 24 24 23 26 27 26 26 27 26 24
37 38 37 37 37 36 37 36 37 37 38 36 38 37 38 38 37 37 37 36 35 35 34 33 32 31 30 30 29 28 27 27 26 25 25 24 26 25 27 25 25 27 27 26
37 37 37 37 36 37 36 37 36 36 37 37 37 36 37 37 36 37 36 36 35 35 35 34 33 31 30 30 29 28 27 26 26 26 25 24 24 24 24 25 24 25 26 27
36 36 37 37 36 36 36 36 35 33 35 36 37 35 36 36 36 35 35 35 35 35 35 34 33 31 30 30 29 28 27 26 26 26 26 25 24 24 25 24 25 25 26 28
36 36 36 36 36 36 35 34 37 34 35 35 36 37 37 36 36 35 35 35 35 34 33 33 32 31 30 29 29 28 27 26 26 26 26 26 26 25 25 25 25 25 26 28
36 34 36 35 35 36 35 36 34 35 32 32 35 35 35 34 35 35 34 34 34 33 32 32 32 31 30 29 29 28 28 27 26 26 26 25 25 25 24 24 24 25 25 27
36 35 35 35 34 34 34 34 34 35 34 33 33 34 36 35 35 34 34 34 33 32 32 32 31 30 29 29 29 28 28 27 26 26 25 25 24 24 25 24 24 24 24 25
35 35 34 35 35 35 34 34 34 33 32 34 33 33 37 35 34 34 34 33 32 31 31 31 31 30 29 29 28 28 27 26 26 25 24 25 25 25 24 23 24 24 23 24
34 33 33 33 35 35 33 34 34 33 33 31 31 33 36 35 34 34 33 33 31 30 30 30 30 29 28 28 28 27 27 26 26 25 24 24 24 24 25 24 23 23 23 23
30 32 31 32 33 34 32 33 33 33 31 32 33 33 34 34 33 33 32 31 30 30 30 30 29 28 27 27 27 26 26 26 26 25 24 23 22 23 23 24 23 23 23 23
32 30 31 32 33 33 33 32 33 32 32 31 32 32 33 32 31 31 30 30 30 29 29 29 29 28 27 26 26 24 23 22 22 22 23 23 23 22 21 21 23 23 22 23
32 30 30 30 32 32 31 32 32 32 32 32 32 32 33 31 31 30 30 30 29 28 28 28 28 27 26 26 25 23 21 22 21 21 22 21 22 21 19 18 20 23 22 23
30 30 29 29 31 31 30 31 31 32 32 32 31 32 32 30 29 29 29 28 28 28 27 27 27 27 26 24 23 22 22 21 22 21 21 21 21 21 19 19 18 19 20 20
29 28 28 28 29 27 31 33 32 31 31 31 31 31 30 29 29 29 28 28 28 27 27 26 26 25 25 23 22 21 21 21 21 21 20 21 21 20 20 18 19 19 19 18
30 29 28 28 29 30 31 32 31 30 29 31 30 30 29 29 29 29 28 27 27 26 26 25 25 25 24 22 21 20 20 21 21 21 21 21 20 20 20 20 19 19 19 19
30 29 27 28 27 27 30 30 29 29 27 29 29 28 28 28 27 27 27 27 27 26 26 25 25 24 22 20 20 19 18 18 19 20 19 20 21 21 20 19 20 20 19 20
27 27 27 27 27 29 31 30 29 26 27 27 27 26 28 26 26 27 27 27 26 26 25 24 23 23 21 20 20 20 18 18 18 19 18 19 19 20 21 20 20 19 20 20
28 28 28 28 27 27 29 29 26 27 27 27 27 28 26 25 27 27 27 26 26 25 24 23 23 21 20 20 20 19 19 18 18 18 19 19 19 20 20 20 20 19 19 17
27 28 28 28 27 27 28 27 28 28 27 27 27 27 26 26 26 27 26 26 25 25 23 22 21 20 20 20 19 19 18 18 18 19 19 20 20 19 20 21 21 19 19 18
28 28 27 26 27 28 28 29 28 27 26 27 27 26 27 26 26 26 26 25 24 23 21 20 20 20 20 19 17 16 16 16 17 18 18 20 20 20 20 21 22 21 21 20
28 26 25 26 27 27 28 27 26 26 26 26 26 26 26 26 26 26 25 24 24 22 20 19 19 19 18 17 16 16 15 15 16 19 20 20 22 21 21 20 19 19 18 17
28 27 26 26 26 26 25 25 26 26 25 26 26 25 26 26 25 25 25 24 23 21 20 18 18 17 15 16 16 15 15 15 15 18 21 21 21 22 23 22 19 19 18 18
Height
744 752 749 733 736 739 744 748 748 737 731 737 737 737 730 724 719 725 728 725 723 723 728 740 745 750 755 762 769 776 780 784 789 793 796 797 799 801 804 805 809 810 814 817
751 752 732 736 740 745 745 749 743 733 733 737 731 736 729 726 728 727 731 731 726 730 734 740 746 750 754 761 768 774 778 783 787 790 791 793 795 797 799 803 805 808 809 814
748 737 736 743 744 749 744 747 743 748 733 726 733 738 736 727 725 727 730 735 735 736 740 743 747 751 754 760 767 771 776 780 782 785 788 788 790 797 794 797 801 805 809 810
739 732 744 744 745 741 747 734 743 745 749 752 729 761 736 729 728 727 728 731 738 742 745 748 750 752 753 757 763 767 771 775 778 781 782 783 782 785 793 791 795 795 800 806
746 745 745 749 747 740 749 737 742 742 747 744 737 751 739 727 736 730 728 735 739 742 744 749 752 757 759 761 761 763 765 770 773 775 779 781 780 782 785 785 790 793 787 796
738 728 738 737 737 740 737 744 739 737 738 758 734 745 740 734 734 731 732 738 741 742 745 749 753 757 758 760 761 763 764 765 766 769 771 776 774 777 778 778 781 782 775 783
737 739 731 736 748 737 742 745 761 761 753 754 735 752 741 730 731 731 735 739 740 740 742 745 750 755 757 759 761 761 763 764 764 765 759 770 768 770 773 775 773 773 775 770
752 761 739 733 742 748 747 753 772 793 775 758 732 762 744 732 730 734 738 738 738 739 741 747 749 754 756 757 758 759 760 762 762 762 762 762 761 762 764 766 766 766 768 766
750 752 733 736 737 744 751 766 738 767 754 762 744 731 724 727 733 735 737 738 740 745 747 748 750 752 756 756 756 756 756 757 756 756 754 751 751 751 753 755 758 759 757 760
740 766 734 739 740 739 751 741 769 751 786 786 751 751 748 743 739 737 741 741 743 747 748 748 748 749 752 752 752 752 752 752 752 750 748 747 745 743 744 746 749 749 752 753
733 750 746 741 750 752 751 754 753 749 760 778 780 758 728 738 736 742 744 741 744 745 747 745 747 748 750 749 748 748 747 747 747 746 745 743 741 738 737 737 739 741 745 747
738 746 758 747 733 736 744 755 753 765 774 756 762 761 717 730 735 737 739 741 745 747 745 746 746 748 747 746 746 744 744 744 743 742 740 738 736 735 734 734 732 734 736 738
744 756 769 758 741 732 756 748 748 751 759 778 783 764 717 724 729 732 739 738 744 748 748 746 745 746 746 745 742 741 740 740 739 738 737 735 733 730 728 728 728 728 728 729
757 761 768 772 755 746 758 752 748 755 770 762 757 750 739 733 735 736 739 740 745 747 746 744 744 745 744 742 739 738 737 735 734 733 733 731 729 726 724 721 722 722 721 723
756 772 761 754 749 749 751 752 750 756 753 764 753 752 742 736 740 742 744 745 745 746 745 743 741 741 742 741 738 737 737 736 734 732 729 726 724 722 721 718 715 715 716 715
749 770 766 769 755 754 758 749 748 749 747 747 746 748 727 734 737 741 741 740 744 746 743 741 740 738 738 738 736 736 736 733 732 728 725 723 720 719 717 714 710 708 709 710
760 765 772 777 756 755 766 748 746 742 735 739 750 736 730 738 742 745 744 745 746 745 744 741 739 738 737 738 736 736 733 730 726 724 722 719 718 716 714 711 709 706 705 705
765 772 773 777 769 788 742 723 733 740 739 735 733 734 738 743 742 744 743 740 742 742 742 741 739 737 736 737 735 734 731 728 726 721 718 716 716 714 711 708 706 705 704 704
750 762 773 777 769 751 738 729 734 743 748 732 735 736 738 738 739 741 740 742 743 742 740 738 735 733 731 734 732 732 731 727 724 720 718 713 714 711 709 706 705 704 702 703
747 755 772 768 773 773 741 732 736 740 762 737 735 742 743 743 753 745 738 739 738 737 735 733 730 727 730 732 730 730 730 728 723 722 716 717 714 711 708 706 703 703 702 700
763 767 772 766 768 752 728 728 734 770 762 745 747 748 743 749 747 740 739 738 737 734 733 730 727 726 728 727 727 727 728 726 724 720 715 720 716 712 709 706 703 703 701 700
753 757 754 752 759 763 728 735 755 744 742 744 741 739 742 744 739 739 737 737 735 732 729 727 723 725 725 725 724 726 726 726 724 719 719 718 715 713 709 707 704 702 702 702
757 746 749 747 749 743 736 741 736 738 741 740 738 738 739 739 738 735 735 733 732 729 729 726 723 722 722 724 725 725 727 726 724 721 718 716 714 713 710 707 705 704 704 704
734 734 743 748 739 736 731 732 733 736 740 738 736 736 734 737 735 735 733 731 730 728 730 727 722 720 720 723 725 725 725 726 723 720 718 715 713 713 711 707 705 703 704 705
733 743 747 745 737 734 731 732 737 739 739 738 736 733 734 731 730 730 729 728 725 726 728 725 720 718 720 723 724 725 725 726 723 719 716 713 709 710 709 709 709 708 708 707
733 737 742 743 736 737 739 739 738 739 739 736 733 732 729 729 729 727 727 725 724 726 725 723 719 718 720 719 723 723 724 724 724 720 714 711 710 708 707 707 708 709 710 709
Wind_Speed
10 10 12 3 9 8 6 7 6 3 3 10 4 3 5 3 6 9 8 6 6 6 9 14 13 16 19 20 21 22 23 21 24 22 23 22 23 22 22 22 21 22 23 25
7 12 9 3 6 8 9 8 8 3 1 7 4 3 3 3 5 7 11 10 11 11 8 11 12 15 16 18 19 20 21 21 23 23 23 21 19 21 21 22 22 24 24 27
13 12 3 6 8 9 12 9 7 8 3 12 7 13 9 11 7 9 12 11 12 11 10 8 10 13 16 16 17 19 20 22 25 25 24 21 18 20 21 21 22 24 25 27
8 8 5 8 7 6 13 5 6 9 10 9 3 1 12 9 9 8 9 11 11 11 10 9 8 6 3 9 16 18 18 20 23 25 23 25 25 24 22 18 23 25 27 27
7 6 6 9 5 8 7 6 6 9 11 12 12 7 11 10 7 7 11 8 9 8 9 8 9 8 6 4 4 5 18 22 21 25 30 28 28 24 20 27 24 26 23 30
12 3 6 8 2 5 7 10 14 13 13 12 10 4 5 8 7 8 8 7 5 6 8 8 8 6 4 4 3 1 3 11 21 26 26 31 26 27 25 29 38 29 26 28
14 12 6 7 9 9 11 16 10 8 10 3 8 5 7 9 7 6 8 3 4 2 6 4 6 3 3 3 2 2 1 4 10 19 20 32 30 29 30 30 30 35 26 28
7 10 11 6 7 9 6 8 7 11 10 12 6 6 5 8 7 7 4 4 2 3 6 4 4 3 4 5 5 4 2 5 8 12 19 27 33 31 30 33 33 32 34 30
9 8 7 2 2 5 4 8 9 10 17 12 11 5 9 10 6 6 1 3 4 6 6 4 3 2 4 6 6 5 5 7 8 11 14 18 23 30 30 33 32 37 31 33
3 10 12 10 5 10 10 11 10 9 6 10 6 4 8 9 6 3 4 7 7 9 9 9 7 8 7 8 8 7 8 9 11 11 12 13 18 22 28 31 32 32 36 34
11 6 4 5 12 13 8 11 6 9 8 11 10 4 8 3 3 3 9 12 14 11 9 8 9 11 11 12 11 11 11 10 12 12 12 11 14 17 22 27 30 32 31 34
4 6 10 13 8 1 10 15 16 10 10 9 11 11 9 7 5 8 10 9 10 10 10 10 9 13 14 12 13 13 13 13 12 12 12 13 15 17 19 21 26 28 30 31
5 7 10 15 17 12 5 9 8 9 8 14 12 10 4 1 6 9 12 10 7 11 12 12 11 11 15 17 14 16 13 16 14 13 13 14 15 18 19 20 20 23 26 28
4 11 12 13 16 12 7 9 10 12 11 13 13 17 15 15 15 12 12 11 10 11 13 13 11 10 14 16 17 16 18 16 16 16 13 18 17 18 18 20 20 22 24 26
6 11 12 14 14 14 17 16 16 17 18 18 19 21 19 13 10 9 10 11 11 13 14 14 13 10 13 16 18 13 15 15 15 12 15 16 16 16 17 18 21 24 25 27
10 10 11 15 16 17 20 20 20 21 21 21 21 21 8 4 5 8 11 12 12 15 15 15 14 13 16 17 17 14 13 16 15 16 14 16 13 13 12 15 17 20 25 20
9 9 10 16 16 16 16 17 17 20 18 16 16 10 12 10 12 12 13 14 13 14 16 16 16 15 16 18 16 15 14 13 15 15 15 14 13 14 13 11 9 9 10 12
12 11 10 13 15 18 18 7 9 11 12 14 15 8 8 9 8 8 15 15 9 13 16 17 16 21 18 19 17 14 13 13 14 14 11 11 12 14 12 9 11 9 7 9
14 11 12 13 15 17 16 5 8 6 10 11 12 7 7 9 10 14 10 10 14 16 16 20 23 21 16 19 14 11 12 11 9 9 8 9 11 11 8 7 5 12 13 12
6 8 10 14 16 16 10 8 4 4 13 10 5 3 9 11 11 9 17 17 18 20 21 22 24 19 17 18 10 8 9 9 6 8 10 11 8 10 8 8 9 10 11 16
11 10 13 12 14 16 14 8 5 9 4 5 6 8 13 11 8 14 16 17 20 21 23 23 17 16 15 14 9 9 8 6 10 6 9 8 8 10 7 6 5 7 9 8
15 13 13 12 16 18 9 6 8 8 3 8 13 13 9 5 14 14 15 16 16 17 22 27 18 15 12 10 9 7 7 4 8 10 5 6 6 8 9 8 5 4 2 5
15 15 12 13 7 2 2 4 6 10 11 13 12 12 8 8 14 15 15 15 16 20 20 24 19 14 11 7 3 3 6 6 11 6 6 6 5 6 7 8 3 4 6 7
8 13 13 12 15 17 13 14 7 9 14 13 16 12 13 12 13 15 15 14 15 17 21 23 18 13 10 6 4 2 6 12 12 7 8 5 6 6 5 10 8 11 8 4
11 3 9 13 14 14 16 10 13 16 12 14 14 9 12 14 14 15 14 14 14 14 17 18 17 13 7 5 3 1 3 11 17 10 6 8 7 3 3 5 7 8 10 10
10 14 12 12 16 14 11 14 16 15 15 16 15 14 14 14 14 14 14 16 17 14 17 15 16 3 2 1 2 1 4 10 14 15 12 6 9 6 4 2 5 4 6 7
Wind_Direction
210 237 227 41 12 340 319 293 288 109 59 281 60 346 74 67 69 81 65 68 71 118 128 143 177 188 185 187 188 194 200 195 189 195 198 203 209 212 219 219 215 207 206 206
199 236 56 339 303 286 276 271 258 180 148 270 288 221 114 118 87 69 91 64 93 111 115 136 171 176 191 183 191 198 204 205 200 205 211 214 213 218 219 224 217 214 208 210
273 63 49 269 280 256 250 272 331 319 317 243 261 233 178 146 165 129 108 93 75 78 95 119 155 178 185 184 199 208 208 212 205 211 211 219 218 235 217 222 223 218 222 214
242 83 281 274 262 293 276 62 290 278 276 301 186 84 185 143 161 178 126 114 98 101 102 110 125 146 163 165 198 213 212 216 213 212 216 213 203 224 229 215 230 220 215 224
106 225 246 273 22 299 34 326 299 293 276 273 256 242 121 185 173 162 110 89 95 91 89 94 98 110 115 141 174 214 211 210 217 213 221 219 235 230 222 220 227 227 210 219
280 114 266 312 124 275 329 272 245 242 248 248 229 304 284 60 71 123 114 106 98 100 105 103 112 112 104 110 111 120 199 222 213 220 222 232 234 220 226 212 219 224 212 216
216 217 160 260 237 203 245 261 276 230 233 265 114 279 299 89 81 25 86 117 100 90 96 101 100 72 68 55 43 346 196 235 230 226 225 237 237 236 227 231 221 228 245 211
248 187 189 149 275 338 315 325 304 303 298 313 336 252 115 67 104 123 152 185 234 56 44 16 25 32 16 356 346 344 317 256 249 244 244 238 236 236 237 231 227 222 224 229
307 235 129 198 229 260 170 255 0 306 265 247 256 186 159 132 167 183 297 15 20 18 331 341 322 306 297 306 319 315 307 282 269 272 272 260 251 237 232 233 229 233 230 231
0 282 198 148 238 222 269 333 280 234 267 278 297 314 248 162 186 160 296 341 335 332 321 317 317 311 315 299 292 291 295 289 284 273 276 275 262 252 242 235 230 229 232 234
288 240 239 149 233 245 187 236 204 277 310 298 293 301 70 3 282 351 325 320 347 328 301 308 315 317 309 298 299 296 291 288 287 283 276 273 274 261 246 243 238 235 235 235
58 285 271 262 129 263 275 280 281 282 290 296 308 284 15 34 325 299 292 328 323 327 324 320 322 312 308 304 299 296 298 286 278 279 282 275 269 265 263 257 247 242 235 236
338 245 263 238 237 193 245 265 246 274 281 265 275 279 333 98 243 331 329 303 323 315 314 313 309 315 310 306 298 293 285 285 280 276 282 282 280 277 264 260 258 247 241 235
309 268 265 285 321 320 276 252 252 264 272 283 277 296 301 305 316 328 317 334 317 303 307 310 314 311 310 307 300 305 302 277 278 277 275 281 283 280 278 268 251 248 239 234
251 270 278 279 288 284 287 280 276 273 276 274 290 296 298 324 4 344 319 287 296 311 312 316 312 312 307 311 311 315 301 291 293 283 281 280 280 281 284 279 263 250 243 233
244 267 282 278 278 282 277 274 272 272 276 274 278 279 302 7 293 284 298 308 321 306 316 315 310 310 317 312 306 301 283 287 287 281 278 280 277 274 281 292 284 259 244 236
251 274 281 278 294 291 275 265 266 266 258 270 277 298 342 337 343 328 321 318 306 317 318 317 316 313 310 308 304 295 291 294 292 286 276 281 272 270 267 272 298 281 243 240
251 260 273 275 278 263 271 290 294 299 298 295 291 303 360 324 298 309 291 281 301 312 314 311 306 305 305 299 289 296 297 305 301 301 297 303 302 277 269 255 256 264 249 228
248 246 268 267 259 269 272 260 254 239 294 308 308 321 315 306 311 290 23 348 322 311 306 303 299 295 293 283 287 291 299 303 310 321 331 349 334 320 298 281 280 261 238 222
258 254 259 260 273 274 296 106 59 338 280 14 13 320 310 322 293 319 345 332 318 311 309 303 298 294 303 280 268 272 275 302 336 330 353 345 345 340 343 348 334 300 267 241
210 221 239 247 255 262 266 103 123 258 358 5 325 297 294 310 316 323 318 310 314 316 312 305 299 293 275 265 245 251 252 266 312 336 8 314 350 322 338 355 314 294 273 257
247 240 238 238 257 269 45 147 239 357 339 295 311 307 312 297 309 305 309 314 316 310 322 309 302 274 259 257 255 255 251 247 287 305 307 316 347 337 348 348 2 18 89 73
240 258 282 289 329 103 276 261 330 317 299 291 291 303 299 307 301 313 312 314 313 316 319 310 297 261 249 227 262 279 333 288 273 276 293 319 327 320 326 325 2 98 93 95
229 231 245 252 267 288 252 251 296 353 341 317 302 306 307 296 305 307 309 312 313 328 319 311 300 263 231 195 208 52 6 337 296 299 300 299 298 298 311 317 17 39 50 99
304 216 270 264 269 265 273 305 343 319 303 303 290 273 285 301 302 307 309 312 311 326 311 314 300 268 208 189 190 310 6 317 318 301 299 280 268 278 285 51 35 32 41 47
269 273 266 284 314 317 309 315 305 295 303 291 287 311 304 302 298 307 306 316 321 315 318 319 324 57 352 211 262 281 287 292 284 295 299 332 305 249 254 178 126 75 56 55